GTI3670 PAFA-KORD

Flight info

Callsign GTI3670
Flight time 4h 55m
Altitude 33000
Route RDFLG5 RDFLG TIBOY AVTAV YYE J537 YPE WAINN REFEX DURUR OSMEE GICHI FAR NITZR ZZIPR FYTTE7
Aircraft B77L/H-SDE1E2E3FGHIJ2J3J4J5M1RWXY/LB1D1

Departure

Time 2026-05-03 22:49
Airport Fairbanks International Airport (PAFA)

Arrival

Time 2026-05-04 03:44
Airport Chicago O'Hare International Airport (KORD)
Time Latitude Longitude Altitude Speed Heading
2026-05-03 22:33 64.82693 -147.84889 429 ft 0 kts 301°
2026-05-03 22:43 64.82693 -147.84888 440 ft 1 kts 301°
2026-05-03 22:43 64.82686 -147.84860 425 ft 3 kts 301°
2026-05-03 22:43 64.82678 -147.84827 425 ft 1 kts 301°
2026-05-03 22:43 64.82680 -147.84836 425 ft 2 kts 300°
2026-05-03 22:44 64.82678 -147.84828 425 ft 0 kts 301°
2026-05-03 22:46 64.82680 -147.84831 425 ft 1 kts 311°
2026-05-03 22:46 64.82695 -147.84826 435 ft 3 kts 28°
2026-05-03 22:46 64.82719 -147.84739 429 ft 9 kts 77°
2026-05-03 22:47 64.82711 -147.84542 433 ft 16 kts 91°
2026-05-03 22:47 64.82771 -147.84316 428 ft 17 kts 41°
2026-05-03 22:47 64.82836 -147.84101 427 ft 16 kts 91°
2026-05-03 22:47 64.82783 -147.83978 430 ft 8 kts 178°
2026-05-03 22:48 64.82732 -147.84047 425 ft 9 kts 216°
2026-05-03 22:48 64.82629 -147.84233 428 ft 34 kts 218°
2026-05-03 22:48 64.82285 -147.84861 424 ft 98 kts 218°
2026-05-03 22:48 64.81566 -147.86172 429 ft 160 kts 217°
2026-05-03 22:49 64.80647 -147.87855 940 ft 167 kts 218°
2026-05-03 22:49 64.79714 -147.89617 1409 ft 186 kts 218°
2026-05-03 22:49 64.78594 -147.91682 1617 ft 207 kts 213°
2026-05-03 22:49 64.77307 -147.92677 2526 ft 198 kts 180°
2026-05-03 22:50 64.75942 -147.91641 2783 ft 224 kts 140°
2026-05-03 22:50 64.75098 -147.88407 3014 ft 248 kts 106°
2026-05-03 22:50 64.74640 -147.84415 3417 ft 258 kts 112°
2026-05-03 22:50 64.73920 -147.80526 4150 ft 262 kts 120°
2026-05-03 22:51 64.72992 -147.76849 5015 ft 262 kts 126°
2026-05-03 22:51 64.71927 -147.73388 5885 ft 262 kts 130°
2026-05-03 22:51 64.70790 -147.70064 6718 ft 262 kts 131°
2026-05-03 22:51 64.69613 -147.66772 7441 ft 266 kts 132°
2026-05-03 22:52 64.68405 -147.63441 8172 ft 270 kts 133°
2026-05-03 22:52 64.67227 -147.59996 8892 ft 273 kts 126°
2026-05-03 22:52 64.66184 -147.56239 9617 ft 277 kts 123°
2026-05-03 22:52 64.65177 -147.52366 10324 ft 282 kts 123°
2026-05-03 22:53 64.64141 -147.48369 10598 ft 303 kts 123°
2026-05-03 22:53 64.63002 -147.43999 10805 ft 327 kts 123°
2026-05-03 22:53 64.61770 -147.39307 11009 ft 351 kts 123°
2026-05-03 22:53 64.60462 -147.34364 11522 ft 364 kts 123°
2026-05-03 22:54 64.59114 -147.29297 12211 ft 372 kts 123°
2026-05-03 22:54 64.57733 -147.24134 13085 ft 378 kts 123°
2026-05-03 22:54 64.56332 -147.18919 13955 ft 382 kts 123°
2026-05-03 22:54 64.54906 -147.13634 14681 ft 389 kts 124°
2026-05-03 22:55 64.53452 -147.08267 15356 ft 396 kts 124°
2026-05-03 22:55 64.51963 -147.02787 16055 ft 404 kts 125°
2026-05-03 22:55 64.50470 -146.97313 16735 ft 410 kts 126°
2026-05-03 22:55 64.48926 -146.91657 17309 ft 420 kts 127°
2026-05-03 22:56 64.47343 -146.85884 17934 ft 428 kts 128°
2026-05-03 22:56 64.45732 -146.80025 18603 ft 434 kts 128°
2026-05-03 22:56 64.44097 -146.74087 19207 ft 439 kts 129°
2026-05-03 22:56 64.42439 -146.68083 19846 ft 444 kts 129°
2026-05-03 22:57 64.40760 -146.62025 20431 ft 450 kts 130°
2026-05-03 22:57 64.39058 -146.55884 21010 ft 456 kts 130°
2026-05-03 22:57 64.37332 -146.49676 21600 ft 462 kts 131°
2026-05-03 22:57 64.35583 -146.43419 22187 ft 467 kts 131°
2026-05-03 22:58 64.33804 -146.37077 22736 ft 472 kts 132°
2026-05-03 22:58 64.32017 -146.30699 23194 ft 476 kts 132°
2026-05-03 22:58 64.30198 -146.24235 23419 ft 484 kts 133°
2026-05-03 22:58 64.28351 -146.17689 23761 ft 490 kts 133°
2026-05-03 22:59 64.26489 -146.11099 24140 ft 492 kts 133°
2026-05-03 22:59 64.24639 -146.04562 24544 ft 493 kts 133°
2026-05-03 22:59 64.22759 -145.97944 24919 ft 496 kts 133°
2026-05-03 22:59 64.20860 -145.91293 25261 ft 499 kts 133°
2026-05-03 23:00 64.18950 -145.84623 25601 ft 502 kts 133°
2026-05-03 23:00 64.17024 -145.77913 25917 ft 504 kts 134°
2026-05-03 23:00 64.15090 -145.71192 26252 ft 507 kts 134°
2026-05-03 23:00 64.13133 -145.64430 26573 ft 509 kts 134°
2026-05-03 23:01 64.11167 -145.57654 26912 ft 512 kts 134°
2026-05-03 23:01 64.09191 -145.50862 27232 ft 514 kts 134°
2026-05-03 23:01 64.07202 -145.44038 27545 ft 517 kts 134°
2026-05-03 23:01 64.05202 -145.37201 27853 ft 519 kts 134°
2026-05-03 23:02 64.03187 -145.30330 28170 ft 521 kts 135°
2026-05-03 23:02 64.01186 -145.23526 28467 ft 524 kts 135°
2026-05-03 23:02 63.99148 -145.16620 28747 ft 526 kts 135°
2026-05-03 23:02 63.97101 -145.09703 29009 ft 528 kts 135°
2026-05-03 23:03 63.95038 -145.02755 29193 ft 531 kts 135°
2026-05-03 23:03 63.92950 -144.95752 29320 ft 535 kts 135°
2026-05-03 23:03 63.90849 -144.88725 29528 ft 538 kts 135°
2026-05-03 23:03 63.88743 -144.81696 29831 ft 538 kts 135°
2026-05-03 23:04 63.87349 -144.77047 30090 ft 537 kts 135°
2026-05-03 23:04 63.85246 -144.70049 30443 ft 536 kts 135°
2026-05-03 23:04 63.83143 -144.63071 30766 ft 534 kts 136°
2026-05-03 23:04 63.81040 -144.56139 31057 ft 534 kts 136°
2026-05-03 23:05 63.78930 -144.49208 31274 ft 535 kts 136°
2026-05-03 23:05 63.76817 -144.42282 31471 ft 535 kts 136°
2026-05-03 23:05 63.74703 -144.35373 31759 ft 534 kts 136°
2026-05-03 23:05 63.72590 -144.28477 32042 ft 534 kts 137°
2026-05-03 23:06 63.70475 -144.21604 32295 ft 533 kts 137°
2026-05-03 23:06 63.68352 -144.14734 32548 ft 533 kts 137°
2026-05-03 23:06 63.66228 -144.07878 32811 ft 533 kts 137°
2026-05-03 23:06 63.64102 -144.01029 33071 ft 533 kts 138°
2026-05-03 23:07 63.62001 -143.94280 33287 ft 534 kts 138°
2026-05-03 23:07 63.59922 -143.87333 33515 ft 541 kts 134°
2026-05-03 23:07 63.58029 -143.79814 33676 ft 552 kts 128°
2026-05-03 23:07 63.56466 -143.71950 33817 ft 561 kts 123°
2026-05-03 23:08 63.54972 -143.63847 34047 ft 562 kts 123°
2026-05-03 23:08 63.53480 -143.55737 34262 ft 562 kts 123°
2026-05-03 23:08 63.51980 -143.47662 34505 ft 560 kts 123°
2026-05-03 23:08 63.50469 -143.39641 34779 ft 557 kts 123°
2026-05-03 23:09 63.48949 -143.31685 35077 ft 554 kts 123°
2026-05-03 23:09 63.45867 -143.15808 35186 ft 558 kts 123°
2026-05-03 23:10 63.42747 -142.99887 35148 ft 558 kts 123°
2026-05-03 23:10 63.39632 -142.84075 35151 ft 560 kts 123°
2026-05-03 23:11 63.36481 -142.68191 35156 ft 561 kts 123°
2026-05-03 23:11 63.33308 -142.52297 35177 ft 561 kts 123°
2026-05-03 23:12 63.30118 -142.36452 35156 ft 560 kts 123°
2026-05-03 23:12 63.26914 -142.20667 35194 ft 559 kts 123°
2026-05-03 23:13 63.23695 -142.04940 35182 ft 559 kts 123°
2026-05-03 23:13 63.20484 -141.89359 35190 ft 559 kts 123°
2026-05-03 23:14 63.17218 -141.73622 35186 ft 558 kts 124°
2026-05-03 23:14 63.13977 -141.58136 35185 ft 558 kts 123°
2026-05-03 23:15 63.10699 -141.42581 35201 ft 559 kts 123°
2026-05-03 23:15 63.07394 -141.27027 35223 ft 560 kts 124°
2026-05-03 23:16 63.04073 -141.11469 35189 ft 561 kts 123°
2026-05-03 23:16 63.01337 -140.95201 35208 ft 572 kts 112°
2026-05-03 23:17 62.99751 -140.78014 35227 ft 579 kts 104°
2026-05-03 23:17 62.98457 -140.60503 35226 ft 580 kts 104°
2026-05-03 23:18 62.97120 -140.43017 35220 ft 580 kts 104°
2026-05-03 23:18 62.95711 -140.25578 35235 ft 579 kts 105°
2026-05-03 23:19 62.94263 -140.08159 35251 ft 578 kts 105°
2026-05-03 23:19 62.92800 -139.90737 35245 ft 580 kts 105°
2026-05-03 23:20 62.91334 -139.73445 35217 ft 580 kts 105°
2026-05-03 23:20 62.89833 -139.56045 35242 ft 580 kts 105°
2026-05-03 23:21 62.88311 -139.38698 35220 ft 579 kts 105°
2026-05-03 23:21 62.86771 -139.21402 35221 ft 578 kts 105°
2026-05-03 23:22 62.84433 -138.95534 35220 ft 577 kts 105°
2026-05-03 23:22 62.82839 -138.78282 35223 ft 579 kts 105°
2026-05-03 23:23 62.81216 -138.61004 35217 ft 581 kts 105°
2026-05-03 23:23 62.79563 -138.43700 35217 ft 581 kts 107°
2026-05-03 23:24 62.77828 -138.26450 35215 ft 582 kts 105°
2026-05-03 23:24 62.76191 -138.09079 35198 ft 583 kts 105°
2026-05-03 23:25 62.74531 -137.91896 35200 ft 582 kts 106°
2026-05-03 23:25 62.72810 -137.74660 35204 ft 580 kts 107°
2026-05-03 23:26 62.71062 -137.57539 35188 ft 577 kts 106°
2026-05-03 23:26 62.69303 -137.40494 35180 ft 576 kts 106°
2026-05-03 23:27 62.67521 -137.23445 35187 ft 578 kts 106°
2026-05-03 23:27 62.65729 -137.06464 35186 ft 579 kts 106°
2026-05-03 23:28 62.63901 -136.89381 35148 ft 581 kts 106°
2026-05-03 23:28 62.62046 -136.72249 35171 ft 581 kts 106°
2026-05-03 23:29 62.60183 -136.55255 35170 ft 582 kts 107°
2026-05-03 23:29 62.58288 -136.38161 35178 ft 583 kts 107°
2026-05-03 23:30 62.56364 -136.21061 35176 ft 582 kts 107°
2026-05-03 23:30 62.54421 -136.04013 35153 ft 581 kts 107°
2026-05-03 23:31 62.52468 -135.87034 35217 ft 581 kts 107°
2026-05-03 23:31 62.50492 -135.70057 35181 ft 582 kts 107°
2026-05-03 23:32 62.48490 -135.53062 35177 ft 582 kts 107°
2026-05-03 23:32 62.46482 -135.36229 35185 ft 582 kts 107°
2026-05-03 23:33 62.44437 -135.19276 35159 ft 582 kts 107°
2026-05-03 23:33 62.42383 -135.02374 35178 ft 582 kts 107°
2026-05-03 23:34 62.40301 -134.85505 35187 ft 581 kts 107°
2026-05-03 23:34 62.38196 -134.68687 35218 ft 581 kts 107°
2026-05-03 23:35 62.36073 -134.51852 35142 ft 582 kts 107°
2026-05-03 23:35 62.33929 -134.35026 35213 ft 582 kts 107°
2026-05-03 23:36 62.31779 -134.18345 35196 ft 582 kts 107°
2026-05-03 23:36 62.29595 -134.01568 35187 ft 582 kts 107°
2026-05-03 23:37 62.27387 -133.84810 35175 ft 583 kts 107°
2026-05-03 23:37 62.25161 -133.68070 35146 ft 583 kts 107°
2026-05-03 23:38 62.22923 -133.51366 35146 ft 583 kts 107°
2026-05-03 23:38 62.20292 -133.35099 35152 ft 580 kts 117°
2026-05-03 23:39 62.16531 -133.19924 35150 ft 576 kts 123°
2026-05-03 23:39 62.12600 -133.04978 35205 ft 577 kts 123°
2026-05-03 23:40 62.08707 -132.90006 35201 ft 576 kts 122°
2026-05-03 23:40 62.04819 -132.74992 35207 ft 577 kts 122°
2026-05-03 23:41 62.00921 -132.60022 35191 ft 579 kts 122°
2026-05-03 23:41 61.97009 -132.45129 35159 ft 580 kts 122°
2026-05-03 23:42 61.93053 -132.30181 35157 ft 580 kts 122°
2026-05-03 23:42 61.89080 -132.15263 35164 ft 581 kts 122°
2026-05-03 23:43 61.85087 -132.00371 35162 ft 581 kts 122°
2026-05-03 23:43 61.81076 -131.85508 35162 ft 581 kts 123°
2026-05-03 23:44 61.77048 -131.70686 35125 ft 581 kts 122°
2026-05-03 23:44 61.73009 -131.55918 35146 ft 580 kts 122°
2026-05-03 23:45 61.68953 -131.41187 35145 ft 580 kts 123°
2026-05-03 23:45 61.64922 -131.26637 35161 ft 579 kts 123°
2026-05-03 23:46 61.60846 -131.12020 35154 ft 579 kts 123°
2026-05-03 23:46 61.56755 -130.97447 35161 ft 579 kts 123°
2026-05-03 23:47 61.52650 -130.82916 35139 ft 578 kts 123°
2026-05-03 23:47 61.48534 -130.68437 35147 ft 578 kts 123°
2026-05-03 23:48 61.44427 -130.54089 35146 ft 576 kts 123°
2026-05-03 23:48 61.40301 -130.39743 35229 ft 576 kts 123°
2026-05-03 23:49 61.36154 -130.25413 35198 ft 578 kts 123°
2026-05-03 23:49 61.32651 -130.13404 35186 ft 579 kts 123°
2026-05-03 23:50 61.28465 -129.99153 35185 ft 581 kts 123°
2026-05-03 23:50 61.24225 -129.84787 35168 ft 584 kts 123°
2026-05-03 23:51 61.19970 -129.70428 35167 ft 583 kts 123°
2026-05-03 23:51 61.15669 -129.56050 35153 ft 582 kts 123°
2026-05-03 23:52 61.12007 -129.43843 35201 ft 581 kts 123°
2026-05-03 23:52 61.08683 -129.32827 35136 ft 580 kts 123°
2026-05-03 23:53 61.05911 -129.23668 35214 ft 578 kts 123°
2026-05-03 23:53 61.02545 -129.12100 35116 ft 585 kts 120°
2026-05-03 23:54 60.99369 -128.98436 35628 ft 579 kts 107°
2026-05-03 23:54 60.98463 -128.91103 36141 ft 565 kts 92°
2026-05-03 23:54 60.98340 -128.84318 36315 ft 556 kts 78°
2026-05-03 23:55 60.99000 -128.77535 35912 ft 551 kts 62°
2026-05-03 23:55 61.00345 -128.71615 35668 ft 530 kts 44°
2026-05-03 23:55 61.02420 -128.66699 35714 ft 495 kts 26°
2026-05-03 23:55 61.04685 -128.63545 35841 ft 468 kts 14°
2026-05-03 23:56 61.07128 -128.61402 36054 ft 452 kts 12°
2026-05-03 23:56 61.09754 -128.57879 35807 ft 493 kts 33°
2026-05-03 23:56 61.11736 -128.52355 34928 ft 542 kts 52°
2026-05-03 23:56 61.12998 -128.45861 34504 ft 561 kts 65°
2026-05-03 23:57 61.13679 -128.38861 34992 ft 559 kts 76°
2026-05-03 23:57 61.13777 -128.36807 35154 ft 558 kts 79°
2026-05-03 23:57 61.13862 -128.33259 35450 ft 557 kts 83°
2026-05-03 23:57 61.13867 -128.32009 35567 ft 556 kts 85°
2026-05-03 23:58 61.13859 -128.30680 35672 ft 555 kts 86°
2026-05-03 23:58 61.13798 -128.28043 35859 ft 555 kts 90°
2026-05-03 23:58 61.13630 -128.24893 35952 ft 559 kts 96°
2026-05-03 23:59 61.13293 -128.21474 35937 ft 564 kts 103°
2026-05-03 23:59 61.12900 -128.18889 35748 ft 570 kts 110°
2026-05-04 00:00 61.12406 -128.16483 35523 ft 578 kts 116°
2026-05-04 00:00 61.12075 -128.15140 35401 ft 582 kts 120°
2026-05-04 00:00 61.11304 -128.12563 35157 ft 589 kts 129°
2026-05-04 00:00 61.10729 -128.11015 35007 ft 588 kts 133°
2026-05-04 00:01 61.10192 -128.09748 34847 ft 586 kts 137°
2026-05-04 00:01 61.09422 -128.08131 34589 ft 586 kts 141°
2026-05-04 00:01 61.07569 -128.04809 34151 ft 582 kts 147°
2026-05-04 00:01 61.04311 -127.99830 33587 ft 576 kts 149°
2026-05-04 00:02 60.97847 -127.90153 33738 ft 578 kts 149°
2026-05-04 00:02 60.95469 -127.86536 33871 ft 581 kts 147°
2026-05-04 00:02 60.92701 -127.81621 34156 ft 587 kts 140°
2026-05-04 00:03 60.89871 -127.75544 34524 ft 587 kts 133°
2026-05-04 00:03 60.87272 -127.69114 35060 ft 582 kts 130°
2026-05-04 00:03 60.84810 -127.62536 35199 ft 580 kts 128°
2026-05-04 00:03 60.82401 -127.55912 35174 ft 580 kts 128°
2026-05-04 00:04 60.77552 -127.42739 35160 ft 578 kts 129°
2026-05-04 00:04 60.72596 -127.29745 35161 ft 581 kts 130°
2026-05-04 00:05 60.67545 -127.16873 35145 ft 581 kts 130°
2026-05-04 00:05 60.62489 -127.04089 35148 ft 582 kts 130°
2026-05-04 00:06 60.57404 -126.91238 35139 ft 583 kts 130°
2026-05-04 00:06 60.52314 -126.78398 35124 ft 583 kts 130°
2026-05-04 00:07 60.47207 -126.65639 35110 ft 582 kts 130°
2026-05-04 00:07 60.42103 -126.52933 35117 ft 581 kts 130°
2026-05-04 00:08 60.36988 -126.40268 35128 ft 580 kts 130°
2026-05-04 00:08 60.31862 -126.27645 35126 ft 580 kts 130°
2026-05-04 00:09 60.26764 -126.15174 35125 ft 580 kts 130°
2026-05-04 00:09 60.21619 -126.02645 35134 ft 579 kts 130°
2026-05-04 00:10 60.16469 -125.90174 35135 ft 579 kts 130°
2026-05-04 00:10 60.11310 -125.77748 35134 ft 579 kts 130°
2026-05-04 00:11 60.06142 -125.65356 35110 ft 579 kts 130°
2026-05-04 00:11 60.00988 -125.53063 35122 ft 579 kts 130°
2026-05-04 00:12 59.95796 -125.40763 35115 ft 579 kts 130°
2026-05-04 00:12 59.90586 -125.28506 35113 ft 578 kts 130°
2026-05-04 00:13 59.85379 -125.16281 35124 ft 579 kts 130°
2026-05-04 00:13 59.80184 -125.04123 35112 ft 580 kts 130°
2026-05-04 00:14 59.74939 -124.91957 35106 ft 580 kts 131°
2026-05-04 00:14 59.69680 -124.79843 35124 ft 580 kts 131°
2026-05-04 00:15 59.64410 -124.67740 35130 ft 580 kts 130°
2026-05-04 00:15 59.59129 -124.55653 35106 ft 582 kts 130°
2026-05-04 00:16 59.53822 -124.43605 35108 ft 582 kts 131°
2026-05-04 00:16 59.48505 -124.31592 35085 ft 582 kts 130°
2026-05-04 00:17 59.43186 -124.19632 35105 ft 580 kts 130°
2026-05-04 00:17 59.37863 -124.07718 35110 ft 580 kts 131°
2026-05-04 00:18 59.32563 -123.95921 35113 ft 580 kts 131°
2026-05-04 00:18 59.27222 -123.84096 35106 ft 579 kts 131°
2026-05-04 00:19 59.21873 -123.72311 35120 ft 578 kts 131°
2026-05-04 00:19 59.16523 -123.60596 35119 ft 578 kts 130°
2026-05-04 00:20 59.11168 -123.48902 35122 ft 578 kts 131°
2026-05-04 00:20 59.05800 -123.37262 35116 ft 577 kts 131°
2026-05-04 00:21 59.00429 -123.25661 35127 ft 577 kts 131°
2026-05-04 00:21 58.95049 -123.14105 35141 ft 577 kts 131°
2026-05-04 00:22 58.89656 -123.02573 35136 ft 577 kts 131°
2026-05-04 00:22 58.84374 -122.90876 35135 ft 576 kts 128°
2026-05-04 00:23 58.79294 -122.79041 35119 ft 576 kts 128°
2026-05-04 00:23 58.74185 -122.67183 35125 ft 575 kts 128°
2026-05-04 00:24 58.69019 -122.55405 35127 ft 575 kts 129°
2026-05-04 00:24 58.63836 -122.43692 35131 ft 575 kts 128°
2026-05-04 00:25 58.58640 -122.32017 35144 ft 574 kts 128°
2026-05-04 00:25 58.53441 -122.20387 35152 ft 574 kts 129°
2026-05-04 00:26 58.48235 -122.08793 35152 ft 574 kts 129°
2026-05-04 00:26 58.43057 -121.97310 35154 ft 574 kts 129°
2026-05-04 00:27 58.37836 -121.85805 35155 ft 573 kts 129°
2026-05-04 00:27 58.32612 -121.74342 35154 ft 573 kts 129°
2026-05-04 00:28 58.27378 -121.62911 35151 ft 573 kts 129°
2026-05-04 00:28 58.22136 -121.51520 35152 ft 572 kts 129°
2026-05-04 00:29 58.16886 -121.40166 35150 ft 572 kts 129°
2026-05-04 00:29 58.11625 -121.28846 35155 ft 572 kts 129°
2026-05-04 00:30 58.06355 -121.17560 35155 ft 572 kts 129°
2026-05-04 00:30 58.01116 -121.06395 35139 ft 571 kts 129°
2026-05-04 00:31 57.95837 -120.95199 35144 ft 570 kts 129°
2026-05-04 00:31 57.90556 -120.84050 35143 ft 570 kts 129°
2026-05-04 00:32 57.85265 -120.72935 35147 ft 570 kts 129°
2026-05-04 00:32 57.80863 -120.63727 35143 ft 570 kts 129°
2026-05-04 00:33 57.72903 -120.47170 35134 ft 570 kts 129°
2026-05-04 00:34 57.67581 -120.36166 35191 ft 571 kts 129°
2026-05-04 00:34 57.62233 -120.25156 35134 ft 572 kts 129°
2026-05-04 00:35 57.56876 -120.14186 35127 ft 572 kts 129°
2026-05-04 00:35 57.51544 -120.03315 35122 ft 572 kts 130°
2026-05-04 00:36 57.46170 -119.92411 35124 ft 571 kts 130°
2026-05-04 00:36 57.40786 -119.81536 35119 ft 571 kts 130°
2026-05-04 00:37 57.35402 -119.70711 35116 ft 571 kts 130°
2026-05-04 00:37 57.30002 -119.59904 35118 ft 571 kts 130°
2026-05-04 00:38 57.24601 -119.49141 35114 ft 571 kts 130°
2026-05-04 00:38 57.19198 -119.38424 35117 ft 570 kts 130°
2026-05-04 00:39 57.13775 -119.27727 35121 ft 571 kts 130°
2026-05-04 00:39 57.08376 -119.17119 35103 ft 571 kts 130°
2026-05-04 00:40 57.02943 -119.06485 35108 ft 570 kts 130°
2026-05-04 00:40 56.97497 -118.95874 35111 ft 570 kts 130°
2026-05-04 00:41 56.92092 -118.85393 35115 ft 569 kts 131°
2026-05-04 00:41 56.86642 -118.74871 35112 ft 570 kts 131°
2026-05-04 00:42 56.81184 -118.64374 35113 ft 569 kts 131°
2026-05-04 00:42 56.75717 -118.53919 35142 ft 570 kts 130°
2026-05-04 00:43 56.70229 -118.43472 35106 ft 571 kts 130°
2026-05-04 00:43 56.64732 -118.33050 35107 ft 570 kts 131°
2026-05-04 00:44 56.59267 -118.22734 35101 ft 570 kts 131°
2026-05-04 00:44 56.53765 -118.12393 35108 ft 569 kts 131°
2026-05-04 00:45 56.48257 -118.02089 35106 ft 569 kts 131°
2026-05-04 00:45 56.42739 -117.91811 35104 ft 569 kts 131°
2026-05-04 00:46 56.37220 -117.81576 35103 ft 569 kts 131°
2026-05-04 00:46 56.31693 -117.71372 35101 ft 568 kts 131°
2026-05-04 00:47 56.26171 -117.61216 35107 ft 567 kts 131°
2026-05-04 00:47 56.20693 -117.51030 35071 ft 565 kts 128°
2026-05-04 00:48 56.15899 -117.39946 35080 ft 560 kts 121°
2026-05-04 00:48 56.11291 -117.28670 35083 ft 561 kts 121°
2026-05-04 00:49 56.06645 -117.17444 35104 ft 561 kts 122°
2026-05-04 00:49 56.01987 -117.06343 35161 ft 562 kts 122°
2026-05-04 00:50 55.97243 -116.95120 35110 ft 563 kts 122°
2026-05-04 00:50 55.92546 -116.84053 35105 ft 562 kts 122°
2026-05-04 00:51 55.87816 -116.72947 35104 ft 562 kts 122°
2026-05-04 00:51 55.83084 -116.61885 35101 ft 561 kts 122°
2026-05-04 00:52 55.78345 -116.50854 35097 ft 561 kts 122°
2026-05-04 00:52 55.73595 -116.39851 35104 ft 561 kts 122°
2026-05-04 00:53 55.68839 -116.28881 35100 ft 561 kts 122°
2026-05-04 00:53 55.64103 -116.18009 35093 ft 561 kts 122°
2026-05-04 00:54 55.59331 -116.07101 35098 ft 561 kts 123°
2026-05-04 00:54 55.54543 -115.96206 35097 ft 561 kts 123°
2026-05-04 00:55 55.49752 -115.85350 35134 ft 561 kts 123°
2026-05-04 00:55 55.44936 -115.74491 35104 ft 560 kts 123°
2026-05-04 00:56 55.40162 -115.63773 35090 ft 559 kts 123°
2026-05-04 00:56 55.35359 -115.53035 35094 ft 558 kts 123°
2026-05-04 00:57 55.30557 -115.42343 35090 ft 557 kts 123°
2026-05-04 00:57 55.25747 -115.31683 35086 ft 557 kts 123°
2026-05-04 00:58 55.20927 -115.21048 35065 ft 558 kts 123°
2026-05-04 00:58 55.16087 -115.10413 35059 ft 558 kts 123°
2026-05-04 00:59 55.11240 -114.99804 35059 ft 558 kts 123°
2026-05-04 00:59 55.06380 -114.89218 35019 ft 559 kts 124°
2026-05-04 01:00 55.01515 -114.78677 35042 ft 557 kts 124°
2026-05-04 01:00 54.96648 -114.68165 35055 ft 558 kts 124°
2026-05-04 01:01 54.91772 -114.57679 35057 ft 557 kts 124°
2026-05-04 01:01 54.86921 -114.47292 35041 ft 557 kts 124°
2026-05-04 01:02 54.82027 -114.36856 35044 ft 557 kts 125°
2026-05-04 01:02 54.77121 -114.26440 35031 ft 557 kts 125°
2026-05-04 01:03 54.72207 -114.16053 35021 ft 558 kts 125°
2026-05-04 01:03 54.67283 -114.05687 35021 ft 558 kts 125°
2026-05-04 01:04 54.62363 -113.95373 35020 ft 559 kts 125°
2026-05-04 01:04 54.57407 -113.85028 35019 ft 560 kts 125°
2026-05-04 01:05 54.52437 -113.74696 35001 ft 560 kts 125°
2026-05-04 01:05 54.47448 -113.64368 35029 ft 561 kts 126°
2026-05-04 01:06 54.42452 -113.54073 34997 ft 561 kts 126°
2026-05-04 01:06 54.37448 -113.43804 34980 ft 560 kts 126°
2026-05-04 01:07 54.32440 -113.33567 34974 ft 559 kts 126°
2026-05-04 01:07 54.27461 -113.23432 34970 ft 559 kts 126°
2026-05-04 01:08 54.22442 -113.13257 34972 ft 559 kts 126°
2026-05-04 01:08 54.17427 -113.03130 34966 ft 559 kts 126°
2026-05-04 01:09 54.12397 -112.93017 34968 ft 559 kts 126°
2026-05-04 01:09 54.07353 -112.82917 34956 ft 559 kts 126°
2026-05-04 01:10 54.02327 -112.72895 34967 ft 560 kts 126°
2026-05-04 01:10 53.97259 -112.62826 35019 ft 561 kts 127°
2026-05-04 01:11 53.92171 -112.52759 34959 ft 562 kts 127°
2026-05-04 01:11 53.87064 -112.42706 34951 ft 562 kts 127°
2026-05-04 01:12 53.81955 -112.32684 34951 ft 562 kts 127°
2026-05-04 01:12 53.76836 -112.22683 34929 ft 562 kts 127°
2026-05-04 01:13 53.71708 -112.12704 34931 ft 561 kts 127°
2026-05-04 01:13 53.66614 -112.02830 34933 ft 561 kts 127°
2026-05-04 01:14 53.61477 -111.92914 34932 ft 561 kts 127°
2026-05-04 01:14 53.56331 -111.83020 34919 ft 561 kts 127°
2026-05-04 01:15 53.51175 -111.73146 34910 ft 562 kts 127°
2026-05-04 01:15 53.46013 -111.63299 34984 ft 562 kts 128°
2026-05-04 01:16 53.40830 -111.53450 34930 ft 563 kts 129°
2026-05-04 01:16 53.35642 -111.43639 34921 ft 562 kts 129°
2026-05-04 01:17 53.30452 -111.33859 34910 ft 562 kts 129°
2026-05-04 01:17 53.25291 -111.24170 34917 ft 561 kts 129°
2026-05-04 01:18 53.20084 -111.14433 34920 ft 561 kts 129°
2026-05-04 01:18 53.14874 -111.04727 34914 ft 562 kts 129°
2026-05-04 01:19 53.09649 -110.95032 34909 ft 562 kts 129°
2026-05-04 01:19 53.05304 -110.86994 34914 ft 562 kts 129°
2026-05-04 01:20 52.99884 -110.74980 34915 ft 557 kts 118°
2026-05-04 01:20 52.95710 -110.64136 34952 ft 558 kts 119°
2026-05-04 01:21 52.92195 -110.55136 34908 ft 559 kts 120°
2026-05-04 01:21 52.87916 -110.44355 34903 ft 558 kts 120°
2026-05-04 01:22 52.83628 -110.33630 34893 ft 557 kts 120°
2026-05-04 01:22 52.79375 -110.23018 34893 ft 556 kts 120°
2026-05-04 01:23 52.75096 -110.12372 34873 ft 556 kts 120°
2026-05-04 01:23 52.70805 -110.01741 34875 ft 556 kts 120°
2026-05-04 01:24 52.66743 -109.90918 34887 ft 555 kts 117°
2026-05-04 01:24 52.62818 -109.79967 34883 ft 556 kts 116°
2026-05-04 01:25 52.58879 -109.69012 34849 ft 557 kts 117°
2026-05-04 01:25 52.54900 -109.58070 34872 ft 558 kts 117°
2026-05-04 01:26 52.50894 -109.47141 34871 ft 558 kts 117°
2026-05-04 01:26 52.46898 -109.36288 34864 ft 559 kts 117°
2026-05-04 01:27 52.42863 -109.25373 34856 ft 560 kts 117°
2026-05-04 01:27 52.38817 -109.14464 34866 ft 560 kts 118°
2026-05-04 01:28 52.34764 -109.03591 34858 ft 559 kts 118°
2026-05-04 01:28 52.30707 -108.92754 34841 ft 558 kts 118°
2026-05-04 01:29 52.26648 -108.81957 34843 ft 557 kts 118°
2026-05-04 01:29 52.22588 -108.71200 34822 ft 556 kts 118°
2026-05-04 01:30 52.18543 -108.60531 34828 ft 557 kts 119°
2026-05-04 01:30 52.14457 -108.49795 34903 ft 558 kts 119°
2026-05-04 01:31 52.10346 -108.39043 34841 ft 559 kts 120°
2026-05-04 01:31 52.06238 -108.28343 34826 ft 558 kts 120°
2026-05-04 01:32 52.02123 -108.17669 34826 ft 556 kts 120°
2026-05-04 01:32 51.98020 -108.07072 34822 ft 554 kts 120°
2026-05-04 01:33 51.93932 -107.96555 34815 ft 553 kts 120°
2026-05-04 01:33 51.89819 -107.86017 34819 ft 553 kts 120°
2026-05-04 01:34 51.85697 -107.75499 34841 ft 553 kts 121°
2026-05-04 01:34 51.81564 -107.64996 34805 ft 553 kts 121°
2026-05-04 01:35 51.77416 -107.54501 34802 ft 553 kts 121°
2026-05-04 01:35 51.73263 -107.44036 34790 ft 553 kts 121°
2026-05-04 01:36 51.69108 -107.33604 34781 ft 553 kts 121°
2026-05-04 01:36 51.64965 -107.23248 34790 ft 554 kts 121°
2026-05-04 01:37 51.60765 -107.12790 34782 ft 556 kts 121°
2026-05-04 01:37 51.56554 -107.02347 34788 ft 557 kts 122°
2026-05-04 01:38 51.52333 -106.91924 34736 ft 556 kts 122°
2026-05-04 01:38 51.48107 -106.81530 34763 ft 554 kts 122°
2026-05-04 01:39 51.43909 -106.71246 34760 ft 554 kts 122°
2026-05-04 01:39 51.39676 -106.60917 34755 ft 555 kts 122°
2026-05-04 01:40 51.35434 -106.50606 34756 ft 555 kts 122°
2026-05-04 01:40 51.31180 -106.40305 34775 ft 555 kts 123°
2026-05-04 01:41 51.26908 -106.30006 34757 ft 556 kts 123°
2026-05-04 01:41 51.22628 -106.19728 34743 ft 556 kts 123°
2026-05-04 01:42 51.18335 -106.09459 34744 ft 555 kts 123°
2026-05-04 01:42 51.14033 -105.99209 34731 ft 555 kts 123°
2026-05-04 01:43 51.09760 -105.89068 34730 ft 556 kts 123°
2026-05-04 01:43 51.05435 -105.78842 34773 ft 557 kts 123°
2026-05-04 01:44 51.01103 -105.68640 34723 ft 557 kts 124°
2026-05-04 01:44 50.96762 -105.58459 34704 ft 555 kts 124°
2026-05-04 01:45 50.92426 -105.48327 34712 ft 555 kts 124°
2026-05-04 01:45 50.85910 -105.33176 34712 ft 555 kts 124°
2026-05-04 01:46 50.81546 -105.23076 34713 ft 555 kts 124°
2026-05-04 01:46 50.77206 -105.13070 34754 ft 556 kts 125°
2026-05-04 01:47 50.72810 -105.02973 34716 ft 557 kts 125°
2026-05-04 01:47 50.68408 -104.92898 34710 ft 557 kts 125°
2026-05-04 01:48 50.64221 -104.82706 34709 ft 557 kts 121°
2026-05-04 01:48 50.60251 -104.72235 34677 ft 556 kts 121°
2026-05-04 01:49 50.56280 -104.61758 34679 ft 557 kts 121°
2026-05-04 01:49 50.52274 -104.51303 34719 ft 558 kts 121°
2026-05-04 01:50 50.48235 -104.40849 34681 ft 559 kts 121°
2026-05-04 01:50 50.44191 -104.30433 34644 ft 558 kts 122°
2026-05-04 01:51 50.40145 -104.20045 34675 ft 557 kts 122°
2026-05-04 01:51 50.36125 -104.09761 34673 ft 557 kts 122°
2026-05-04 01:52 50.32043 -103.99358 34673 ft 557 kts 122°
2026-05-04 01:52 50.28006 -103.89110 34707 ft 557 kts 122°
2026-05-04 01:53 50.23931 -103.78808 34676 ft 556 kts 122°
2026-05-04 01:53 50.19856 -103.68549 34674 ft 555 kts 122°
2026-05-04 01:54 50.15783 -103.58332 34676 ft 554 kts 122°
2026-05-04 01:54 50.11708 -103.48152 34673 ft 553 kts 123°
2026-05-04 01:55 50.07629 -103.37999 34657 ft 552 kts 123°
2026-05-04 01:55 50.03539 -103.27857 34673 ft 553 kts 123°
2026-05-04 01:56 49.99441 -103.17736 34681 ft 554 kts 123°
2026-05-04 01:56 49.95346 -103.07663 34677 ft 555 kts 123°
2026-05-04 01:57 49.91205 -102.97513 34626 ft 556 kts 123°
2026-05-04 01:57 49.87073 -102.87426 34667 ft 557 kts 123°
2026-05-04 01:58 49.82905 -102.77290 34712 ft 558 kts 123°
2026-05-04 01:58 49.78724 -102.67158 34658 ft 558 kts 124°
2026-05-04 01:59 49.74532 -102.57043 34657 ft 557 kts 124°
2026-05-04 01:59 49.70342 -102.46970 34635 ft 556 kts 124°
2026-05-04 02:00 49.66153 -102.36937 34625 ft 556 kts 124°
2026-05-04 02:00 49.61984 -102.26989 34631 ft 556 kts 124°
2026-05-04 02:01 49.57775 -102.16982 34659 ft 556 kts 124°
2026-05-04 02:01 49.53555 -102.06988 34603 ft 556 kts 124°
2026-05-04 02:02 49.49329 -101.97019 34605 ft 556 kts 124°
2026-05-04 02:02 49.45085 -101.87042 34621 ft 557 kts 124°
2026-05-04 02:03 49.40835 -101.77089 34615 ft 557 kts 124°
2026-05-04 02:03 49.36572 -101.67146 34578 ft 558 kts 124°
2026-05-04 02:04 49.32324 -101.57272 34614 ft 558 kts 124°
2026-05-04 02:04 49.28038 -101.47345 34607 ft 558 kts 124°
2026-05-04 02:05 49.23744 -101.37439 34604 ft 558 kts 124°
2026-05-04 02:05 49.19444 -101.27555 34568 ft 558 kts 124°
2026-05-04 02:06 49.15143 -101.17704 34597 ft 557 kts 124°
2026-05-04 02:06 49.10837 -101.07879 34624 ft 556 kts 124°
2026-05-04 02:07 49.07257 -100.99736 34585 ft 555 kts 125°
2026-05-04 02:07 49.02953 -100.89976 34580 ft 553 kts 125°
2026-05-04 02:08 48.98656 -100.80273 34575 ft 551 kts 125°
2026-05-04 02:08 48.94354 -100.70634 34565 ft 549 kts 125°
2026-05-04 02:09 48.90053 -100.61040 34563 ft 549 kts 125°
2026-05-04 02:09 48.85750 -100.51463 34561 ft 548 kts 125°
2026-05-04 02:10 48.81438 -100.41902 34534 ft 548 kts 125°
2026-05-04 02:10 48.77160 -100.32444 34536 ft 547 kts 125°
2026-05-04 02:11 48.72847 -100.22943 34547 ft 547 kts 125°
2026-05-04 02:11 48.68521 -100.13448 34545 ft 547 kts 125°
2026-05-04 02:12 48.64208 -100.04016 34524 ft 548 kts 125°
2026-05-04 02:12 48.59861 -99.94540 34544 ft 548 kts 125°
2026-05-04 02:13 48.55510 -99.85091 34546 ft 548 kts 125°
2026-05-04 02:13 48.51150 -99.75655 34517 ft 548 kts 126°
2026-05-04 02:14 48.46786 -99.66243 34522 ft 547 kts 126°
2026-05-04 02:14 48.42415 -99.56847 34533 ft 547 kts 126°
2026-05-04 02:15 48.38044 -99.47484 34565 ft 547 kts 126°
2026-05-04 02:15 48.33664 -99.38134 34548 ft 546 kts 126°
2026-05-04 02:16 48.29302 -99.28855 34530 ft 546 kts 126°
2026-05-04 02:16 48.24918 -99.19560 34510 ft 544 kts 126°
2026-05-04 02:17 48.20539 -99.10306 34497 ft 544 kts 126°
2026-05-04 02:17 48.16152 -99.01064 34489 ft 544 kts 126°
2026-05-04 02:18 48.11732 -98.91882 34496 ft 543 kts 129°
2026-05-04 02:18 48.06683 -98.83502 34478 ft 540 kts 136°
2026-05-04 02:19 48.01441 -98.75441 34503 ft 540 kts 136°
2026-05-04 02:19 47.96263 -98.67435 34515 ft 540 kts 136°
2026-05-04 02:20 47.91068 -98.59349 34532 ft 540 kts 135°
2026-05-04 02:20 47.85869 -98.51259 34537 ft 538 kts 135°
2026-05-04 02:21 47.80678 -98.43210 34564 ft 538 kts 136°
2026-05-04 02:21 47.75526 -98.35253 34547 ft 537 kts 136°
2026-05-04 02:22 47.70338 -98.27266 34515 ft 536 kts 135°
2026-05-04 02:22 47.65164 -98.19326 34543 ft 535 kts 136°
2026-05-04 02:23 47.59987 -98.11405 34546 ft 534 kts 136°
2026-05-04 02:23 47.54809 -98.03506 34552 ft 534 kts 136°
2026-05-04 02:24 47.49633 -97.95632 34547 ft 533 kts 135°
2026-05-04 02:24 47.44458 -97.87786 34554 ft 533 kts 136°
2026-05-04 02:25 47.39277 -97.79952 34554 ft 533 kts 136°
2026-05-04 02:25 47.34093 -97.72138 34558 ft 533 kts 136°
2026-05-04 02:26 47.28946 -97.64402 34560 ft 531 kts 136°
2026-05-04 02:26 47.23771 -97.56648 34568 ft 530 kts 136°
2026-05-04 02:27 47.18594 -97.48913 34574 ft 530 kts 136°
2026-05-04 02:27 47.13434 -97.41226 34577 ft 530 kts 136°
2026-05-04 02:28 47.08248 -97.33523 34572 ft 529 kts 136°
2026-05-04 02:28 47.03070 -97.25856 34584 ft 529 kts 136°
2026-05-04 02:29 46.97893 -97.18211 34580 ft 529 kts 136°
2026-05-04 02:29 46.92711 -97.10581 34571 ft 528 kts 136°
2026-05-04 02:30 46.87557 -97.03014 34577 ft 528 kts 136°
2026-05-04 02:30 46.82368 -96.95418 34577 ft 528 kts 136°
2026-05-04 02:31 46.77174 -96.87832 34578 ft 528 kts 136°
2026-05-04 02:31 46.71946 -96.80300 34593 ft 527 kts 137°
2026-05-04 02:32 46.66679 -96.72935 34598 ft 527 kts 138°
2026-05-04 02:32 46.61374 -96.65560 34606 ft 527 kts 137°
2026-05-04 02:33 46.56074 -96.58181 34617 ft 527 kts 137°
2026-05-04 02:33 46.50774 -96.50805 34635 ft 527 kts 137°
2026-05-04 02:34 46.45476 -96.43448 34668 ft 527 kts 137°
2026-05-04 02:34 46.40174 -96.36108 34650 ft 527 kts 138°
2026-05-04 02:35 46.34873 -96.28792 34645 ft 526 kts 137°
2026-05-04 02:35 46.29572 -96.21497 34647 ft 525 kts 137°
2026-05-04 02:36 46.24306 -96.14269 34646 ft 525 kts 137°
2026-05-04 02:36 46.19003 -96.07012 34632 ft 524 kts 137°
2026-05-04 02:37 46.13703 -95.99779 34658 ft 523 kts 137°
2026-05-04 02:37 46.08413 -95.92580 34688 ft 523 kts 137°
2026-05-04 02:38 46.03118 -95.85393 34696 ft 523 kts 137°
2026-05-04 02:38 45.97821 -95.78224 34699 ft 522 kts 137°
2026-05-04 02:39 45.92561 -95.71125 34712 ft 521 kts 137°
2026-05-04 02:39 45.87269 -95.64001 34717 ft 521 kts 137°
2026-05-04 02:40 45.81971 -95.56890 34697 ft 521 kts 137°
2026-05-04 02:40 45.76684 -95.49813 34737 ft 520 kts 137°
2026-05-04 02:41 45.71379 -95.42730 34723 ft 521 kts 137°
2026-05-04 02:41 45.66071 -95.35662 34703 ft 521 kts 137°
2026-05-04 02:42 45.60790 -95.28650 34694 ft 521 kts 137°
2026-05-04 02:42 45.55480 -95.21618 34701 ft 521 kts 137°
2026-05-04 02:43 45.50166 -95.14600 34717 ft 520 kts 137°
2026-05-04 02:43 45.44869 -95.07624 34725 ft 520 kts 137°
2026-05-04 02:44 45.39549 -95.00636 34743 ft 520 kts 137°
2026-05-04 02:44 45.34264 -94.93711 34733 ft 520 kts 137°
2026-05-04 02:45 45.28941 -94.86756 34734 ft 519 kts 137°
2026-05-04 02:45 45.23623 -94.79827 34728 ft 518 kts 137°
2026-05-04 02:46 45.18319 -94.72934 34735 ft 517 kts 137°
2026-05-04 02:46 45.13009 -94.66051 34740 ft 517 kts 137°
2026-05-04 02:47 45.07706 -94.59194 34754 ft 516 kts 137°
2026-05-04 02:47 45.02405 -94.52358 34736 ft 516 kts 137°
2026-05-04 02:48 44.97100 -94.45536 34765 ft 515 kts 137°
2026-05-04 02:48 44.91789 -94.38725 34769 ft 515 kts 137°
2026-05-04 02:49 44.86481 -94.31933 34766 ft 515 kts 137°
2026-05-04 02:49 44.81173 -94.25159 34769 ft 515 kts 137°
2026-05-04 02:50 44.75878 -94.18420 34764 ft 515 kts 137°
2026-05-04 02:50 44.70591 -94.11708 34748 ft 515 kts 137°
2026-05-04 02:51 44.65265 -94.04965 34749 ft 515 kts 137°
2026-05-04 02:51 44.59929 -93.98226 34758 ft 515 kts 137°
2026-05-04 02:52 44.54597 -93.91509 34753 ft 515 kts 138°
2026-05-04 02:52 44.49260 -93.84803 34770 ft 514 kts 138°
2026-05-04 02:53 44.43977 -93.78181 34785 ft 513 kts 138°
2026-05-04 02:53 44.38652 -93.71524 34772 ft 513 kts 138°
2026-05-04 02:54 44.34191 -93.65960 34757 ft 512 kts 139°
2026-05-04 02:54 44.28880 -93.59350 34787 ft 511 kts 139°
2026-05-04 02:55 44.20946 -93.49500 34794 ft 511 kts 138°
2026-05-04 02:56 44.16105 -93.42237 34752 ft 511 kts 126°
2026-05-04 02:56 44.11890 -93.34276 34768 ft 511 kts 126°
2026-05-04 02:57 44.07647 -93.26300 34773 ft 512 kts 126°
2026-05-04 02:57 44.03366 -93.18354 34769 ft 513 kts 126°
2026-05-04 02:58 43.99083 -93.10463 34774 ft 514 kts 127°
2026-05-04 02:58 43.94815 -93.02624 34795 ft 515 kts 127°
2026-05-04 02:59 43.90488 -92.94695 34790 ft 516 kts 127°
2026-05-04 02:59 43.86144 -92.86753 34786 ft 516 kts 127°
2026-05-04 03:00 43.81797 -92.78827 34784 ft 517 kts 127°
2026-05-04 03:00 43.77441 -92.70907 34781 ft 517 kts 127°
2026-05-04 03:01 43.73083 -92.63003 34806 ft 517 kts 127°
2026-05-04 03:01 43.68737 -92.55143 34793 ft 517 kts 127°
2026-05-04 03:02 43.64363 -92.47253 34785 ft 517 kts 127°
2026-05-04 03:02 43.59980 -92.39368 34769 ft 517 kts 127°
2026-05-04 03:03 43.55620 -92.31547 34788 ft 517 kts 127°
2026-05-04 03:03 43.51228 -92.23688 34797 ft 517 kts 127°
2026-05-04 03:04 43.46829 -92.15838 34794 ft 518 kts 127°
2026-05-04 03:04 43.42415 -92.07981 34794 ft 518 kts 127°
2026-05-04 03:05 43.38000 -92.00144 34787 ft 518 kts 127°
2026-05-04 03:05 43.33581 -91.92323 34793 ft 518 kts 127°
2026-05-04 03:06 43.29180 -91.84549 34790 ft 519 kts 127°
2026-05-04 03:06 43.24733 -91.76718 34788 ft 519 kts 127°
2026-05-04 03:07 43.20293 -91.68916 34774 ft 519 kts 127°
2026-05-04 03:07 43.16413 -91.60644 34808 ft 515 kts 113°
2026-05-04 03:08 43.13540 -91.51676 34807 ft 515 kts 111°
2026-05-04 03:08 43.10614 -91.42788 34792 ft 516 kts 113°
2026-05-04 03:09 43.07529 -91.33914 34789 ft 516 kts 114°
2026-05-04 03:09 43.04432 -91.25043 34784 ft 517 kts 114°
2026-05-04 03:10 43.01344 -91.16160 34777 ft 516 kts 114°
2026-05-04 03:10 42.98257 -91.07292 34796 ft 516 kts 114°
2026-05-04 03:11 42.95162 -90.98432 34783 ft 517 kts 114°
2026-05-04 03:11 42.92077 -90.89635 34785 ft 516 kts 114°
2026-05-04 03:12 42.88970 -90.80799 34787 ft 516 kts 114°
2026-05-04 03:12 42.85856 -90.71971 34796 ft 516 kts 114°
2026-05-04 03:13 42.82732 -90.63157 34792 ft 517 kts 114°
2026-05-04 03:13 42.79606 -90.54371 34598 ft 510 kts 114°
2026-05-04 03:13 42.78069 -90.50058 34159 ft 504 kts 114°
2026-05-04 03:14 42.76535 -90.45758 33311 ft 507 kts 114°
2026-05-04 03:14 42.74962 -90.41349 32850 ft 524 kts 114°
2026-05-04 03:14 42.73361 -90.36873 32855 ft 521 kts 114°
2026-05-04 03:14 42.71806 -90.32537 32369 ft 512 kts 114°
2026-05-04 03:15 42.70248 -90.28199 31708 ft 508 kts 114°
2026-05-04 03:15 42.68702 -90.23909 31117 ft 503 kts 114°
2026-05-04 03:15 42.67167 -90.19673 30635 ft 496 kts 114°
2026-05-04 03:15 42.65653 -90.15506 30167 ft 489 kts 114°
2026-05-04 03:16 42.64158 -90.11395 29652 ft 482 kts 114°
2026-05-04 03:16 42.62679 -90.07329 29040 ft 477 kts 114°
2026-05-04 03:16 42.61213 -90.03301 28358 ft 474 kts 114°
2026-05-04 03:16 42.59756 -89.99303 27750 ft 470 kts 114°
2026-05-04 03:17 42.58311 -89.95341 27144 ft 466 kts 114°
2026-05-04 03:17 42.56876 -89.91415 26549 ft 463 kts 114°
2026-05-04 03:17 42.55449 -89.87512 25969 ft 459 kts 114°
2026-05-04 03:17 42.54033 -89.83644 25417 ft 456 kts 114°
2026-05-04 03:18 42.52643 -89.79859 24879 ft 453 kts 114°
2026-05-04 03:18 42.51452 -89.75948 24330 ft 446 kts 102°
2026-05-04 03:18 42.50895 -89.71841 23798 ft 439 kts 95°
2026-05-04 03:18 42.50492 -89.67753 23272 ft 437 kts 95°
2026-05-04 03:19 42.50080 -89.63688 22659 ft 435 kts 95°
2026-05-04 03:19 42.49634 -89.59641 22088 ft 432 kts 96°
2026-05-04 03:19 42.49160 -89.55623 21526 ft 430 kts 96°
2026-05-04 03:19 42.48673 -89.51640 20974 ft 428 kts 97°
2026-05-04 03:20 42.48181 -89.47673 20432 ft 426 kts 97°
2026-05-04 03:20 42.47692 -89.43740 20071 ft 419 kts 97°
2026-05-04 03:20 42.47213 -89.39887 19812 ft 410 kts 97°
2026-05-04 03:20 42.46749 -89.36135 19566 ft 402 kts 97°
2026-05-04 03:21 42.46298 -89.32456 19268 ft 395 kts 97°
2026-05-04 03:21 42.45849 -89.28798 18855 ft 392 kts 97°
2026-05-04 03:21 42.45401 -89.25150 18380 ft 392 kts 97°
2026-05-04 03:21 42.44953 -89.21509 17885 ft 392 kts 97°
2026-05-04 03:22 42.44503 -89.17876 17404 ft 390 kts 97°
2026-05-04 03:22 42.44054 -89.14265 16964 ft 386 kts 97°
2026-05-04 03:22 42.43613 -89.10747 16540 ft 383 kts 97°
2026-05-04 03:22 42.43160 -89.07206 16103 ft 380 kts 98°
2026-05-04 03:23 42.42710 -89.03689 15639 ft 378 kts 98°
2026-05-04 03:23 42.42269 -89.00186 15185 ft 375 kts 98°
2026-05-04 03:23 42.41835 -88.96711 14761 ft 373 kts 98°
2026-05-04 03:23 42.41405 -88.93285 14348 ft 370 kts 98°
2026-05-04 03:24 42.40972 -88.89867 14013 ft 365 kts 98°
2026-05-04 03:24 42.40547 -88.86524 13767 ft 357 kts 98°
2026-05-04 03:24 42.40125 -88.83235 13430 ft 353 kts 98°
2026-05-04 03:24 42.39706 -88.79973 12965 ft 351 kts 98°
2026-05-04 03:25 42.39290 -88.76730 12514 ft 349 kts 98°
2026-05-04 03:25 42.38879 -88.73535 12087 ft 347 kts 98°
2026-05-04 03:25 42.38468 -88.70355 11783 ft 341 kts 98°
2026-05-04 03:25 42.38066 -88.67254 11582 ft 332 kts 98°
2026-05-04 03:26 42.37672 -88.64222 11363 ft 323 kts 98°
2026-05-04 03:26 42.37285 -88.61257 11102 ft 317 kts 98°
2026-05-04 03:26 42.36907 -88.58364 11057 ft 313 kts 98°
2026-05-04 03:26 42.36510 -88.55317 11111 ft 346 kts 99°
2026-05-04 03:27 42.36079 -88.52013 11117 ft 373 kts 99°
2026-05-04 03:27 42.35621 -88.48537 11064 ft 377 kts 99°
2026-05-04 03:27 42.35161 -88.45051 11062 ft 377 kts 99°
2026-05-04 03:27 42.34685 -88.41567 11059 ft 377 kts 100°
2026-05-04 03:28 42.34147 -88.38104 11055 ft 376 kts 101°
2026-05-04 03:28 42.33595 -88.34644 11060 ft 376 kts 101°
2026-05-04 03:28 42.33040 -88.31194 11051 ft 373 kts 101°
2026-05-04 03:28 42.32496 -88.27824 10988 ft 360 kts 101°
2026-05-04 03:29 42.31967 -88.24560 10737 ft 351 kts 101°
2026-05-04 03:29 42.31450 -88.21375 10479 ft 343 kts 101°
2026-05-04 03:29 42.30953 -88.18308 10225 ft 336 kts 101°
2026-05-04 03:29 42.30460 -88.15268 10068 ft 325 kts 101°
2026-05-04 03:30 42.29987 -88.12345 9997 ft 314 kts 101°
2026-05-04 03:30 42.29519 -88.09450 9838 ft 318 kts 101°
2026-05-04 03:30 42.29050 -88.06538 9600 ft 317 kts 101°
2026-05-04 03:30 42.28592 -88.03693 9326 ft 314 kts 101°
2026-05-04 03:31 42.28136 -88.00850 9054 ft 309 kts 101°
2026-05-04 03:31 42.27680 -87.97998 8784 ft 305 kts 101°
2026-05-04 03:31 42.27241 -87.95241 8521 ft 304 kts 101°
2026-05-04 03:31 42.26803 -87.92474 8274 ft 302 kts 101°
2026-05-04 03:32 42.26367 -87.89704 8010 ft 301 kts 101°
2026-05-04 03:32 42.25937 -87.86944 7752 ft 300 kts 101°
2026-05-04 03:32 42.25511 -87.84194 7512 ft 299 kts 101°
2026-05-04 03:32 42.25086 -87.81445 7272 ft 299 kts 101°
2026-05-04 03:33 42.24664 -87.78698 7021 ft 299 kts 101°
2026-05-04 03:33 42.24245 -87.75954 6772 ft 298 kts 101°
2026-05-04 03:33 42.23828 -87.73210 6537 ft 298 kts 102°
2026-05-04 03:33 42.23268 -87.70531 6278 ft 294 kts 115°
2026-05-04 03:34 42.22139 -87.68264 6018 ft 289 kts 132°
2026-05-04 03:34 42.20807 -87.66281 5786 ft 288 kts 135°
2026-05-04 03:34 42.19442 -87.64330 5527 ft 283 kts 135°
2026-05-04 03:34 42.18096 -87.62417 5292 ft 280 kts 136°
2026-05-04 03:35 42.16768 -87.60533 5129 ft 275 kts 136°
2026-05-04 03:35 42.15448 -87.58645 4885 ft 279 kts 136°
2026-05-04 03:35 42.14115 -87.56731 4628 ft 281 kts 136°
2026-05-04 03:35 42.12776 -87.54807 4373 ft 280 kts 136°
2026-05-04 03:36 42.11440 -87.52918 4119 ft 275 kts 140°
2026-05-04 03:36 42.09841 -87.51647 3830 ft 263 kts 169°
2026-05-04 03:36 42.08100 -87.51571 3572 ft 242 kts 200°
2026-05-04 03:36 42.06679 -87.52550 3321 ft 222 kts 221°
2026-05-04 03:37 42.05509 -87.53839 3112 ft 211 kts 225°
2026-05-04 03:37 42.04407 -87.55104 3056 ft 207 kts 225°
2026-05-04 03:37 42.03330 -87.56353 3006 ft 206 kts 225°
2026-05-04 03:37 42.02242 -87.57627 3010 ft 208 kts 226°
2026-05-04 03:38 42.01156 -87.58891 3005 ft 207 kts 225°
2026-05-04 03:38 42.00076 -87.60160 2996 ft 206 kts 226°
2026-05-04 03:38 41.99006 -87.61409 2994 ft 204 kts 225°
2026-05-04 03:38 41.97937 -87.62666 2990 ft 204 kts 226°
2026-05-04 03:39 41.97073 -87.64093 2990 ft 195 kts 252°
2026-05-04 03:39 41.96847 -87.65876 3014 ft 198 kts 264°
2026-05-04 03:39 41.96690 -87.67724 3005 ft 194 kts 266°
2026-05-04 03:39 41.96626 -87.69410 2995 ft 168 kts 270°
2026-05-04 03:40 41.96613 -87.70873 2999 ft 147 kts 270°
2026-05-04 03:40 41.96608 -87.72182 2998 ft 138 kts 271°
2026-05-04 03:40 41.96605 -87.73478 2954 ft 141 kts 271°
2026-05-04 03:40 41.96604 -87.74807 2773 ft 141 kts 270°
2026-05-04 03:41 41.96601 -87.76109 2579 ft 138 kts 270°
2026-05-04 03:41 41.96604 -87.76955 2450 ft 137 kts 271°
2026-05-04 03:41 41.96632 -87.78233 2270 ft 137 kts 271°
2026-05-04 03:41 41.96644 -87.79514 2136 ft 137 kts 269°
2026-05-04 03:42 41.96649 -87.80797 2003 ft 137 kts 269°
2026-05-04 03:42 41.96668 -87.82054 1882 ft 126 kts 268°
2026-05-04 03:42 41.96661 -87.83158 1662 ft 115 kts 264°
2026-05-04 03:42 41.96633 -87.84257 1469 ft 121 kts 263°
2026-05-04 03:43 41.96585 -87.85403 1292 ft 125 kts 263°
2026-05-04 03:43 41.96573 -87.86645 1208 ft 138 kts 266°
2026-05-04 03:43 41.96580 -87.87967 977 ft 144 kts 267°
2026-05-04 03:43 41.96578 -87.89286 713 ft 140 kts 265°
2026-05-04 03:44 41.96560 -87.90504 675 ft 117 kts 267°
2026-05-04 03:44 41.96562 -87.91387 672 ft 72 kts 270°
2026-05-04 03:44 41.96560 -87.91867 672 ft 37 kts 269°
2026-05-04 03:44 41.96564 -87.92243 674 ft 50 kts 270°
2026-05-04 03:45 41.96563 -87.92768 673 ft 54 kts 270°
2026-05-04 03:45 41.96545 -87.93089 673 ft 24 kts 231°
2026-05-04 03:45 41.96445 -87.93130 673 ft 10 kts 182°
2026-05-04 03:45 41.96368 -87.93126 673 ft 13 kts 162°
2026-05-04 03:46 41.96331 -87.92991 673 ft 21 kts 91°
2026-05-04 03:46 41.96334 -87.92846 673 ft 16 kts 85°
2026-05-04 03:46 41.96408 -87.92676 673 ft 19 kts 69°
2026-05-04 03:46 41.96429 -87.92501 674 ft 19 kts 83°
2026-05-04 03:47 41.96425 -87.92324 674 ft 19 kts 95°
2026-05-04 03:47 41.96419 -87.92147 673 ft 17 kts 96°
2026-05-04 03:47 41.96351 -87.92059 673 ft 3 kts 160°
2026-05-04 03:47 41.96333 -87.92050 673 ft 3 kts 160°